TimeCST,TemperatureF,Dew PointF,Humidity,Sea Level PressureIn,VisibilityMPH,Wind Direction,Wind SpeedMPH,Gust SpeedMPH,PrecipitationIn,Events,Conditions,WindDirDegrees,DateUTC
12:15 AM,21.2,13.8,73,30.18,10.0,WNW,12.7,-,N/A,,Clear,300,2014-01-17 06:15:00
12:35 AM,24.4,15.3,68,30.17,10.0,NW,15.0,20.7,N/A,,Clear,320,2014-01-17 06:35:00
12:55 AM,24.8,15.4,68,30.17,10.0,NW,17.3,21.9,N/A,,Clear,310,2014-01-17 06:55:00
1:15 AM,24.8,15.8,69,30.17,10.0,NW,18.4,24.2,N/A,,Clear,310,2014-01-17 07:15:00
1:35 AM,23.4,15.6,72,30.17,10.0,NW,16.1,20.7,N/A,,Clear,310,2014-01-17 07:35:00
1:55 AM,22.3,14.7,73,30.17,10.0,NW,13.8,-,N/A,,Clear,310,2014-01-17 07:55:00
2:15 AM,22.1,14.9,74,30.17,10.0,WNW,15.0,-,N/A,,Clear,300,2014-01-17 08:15:00
2:35 AM,21.6,15.3,77,30.17,10.0,WNW,12.7,-,N/A,,Clear,300,2014-01-17 08:35:00
2:55 AM,21.0,15.8,80,30.17,10.0,WNW,13.8,-,N/A,,Clear,300,2014-01-17 08:55:00
3:15 AM,21.0,16.2,81,30.17,10.0,WNW,13.8,-,N/A,,Clear,300,2014-01-17 09:15:00
3:35 AM,21.6,16.7,82,30.16,10.0,WNW,13.8,-,N/A,,Clear,300,2014-01-17 09:35:00
3:55 AM,20.8,16.5,83,30.16,10.0,WNW,11.5,-,N/A,,Clear,300,2014-01-17 09:55:00
4:15 AM,21.0,16.5,83,30.15,10.0,WNW,11.5,-,N/A,,Clear,300,2014-01-17 10:15:00
4:35 AM,21.2,16.3,82,30.15,10.0,WNW,13.8,-,N/A,,Clear,300,2014-01-17 10:35:00
4:55 AM,21.0,16.0,81,30.15,10.0,NW,13.8,-,N/A,,Clear,310,2014-01-17 10:55:00
5:15 AM,20.8,15.8,81,30.15,10.0,NW,12.7,-,N/A,,Clear,310,2014-01-17 11:15:00
5:35 AM,20.1,14.9,80,30.15,10.0,WNW,13.8,-,N/A,,Clear,300,2014-01-17 11:35:00
5:55 AM,19.4,14.0,80,30.15,10.0,WNW,11.5,-,N/A,,Clear,300,2014-01-17 11:55:00
6:15 AM,18.0,13.1,81,30.16,10.0,WNW,9.2,-,N/A,,Clear,300,2014-01-17 12:15:00
6:35 AM,16.0,11.7,83,30.16,10.0,WNW,9.2,-,N/A,,Clear,290,2014-01-17 12:35:00
6:55 AM,16.7,12.4,83,30.15,10.0,WNW,8.1,-,N/A,,Clear,300,2014-01-17 12:55:00
7:15 AM,16.2,11.5,82,30.15,10.0,NW,8.1,-,N/A,,Clear,320,2014-01-17 13:15:00
7:35 AM,14.7,10.4,83,30.15,10.0,NW,6.9,-,N/A,,Clear,310,2014-01-17 13:35:00
7:55 AM,12.9,9.1,85,30.14,10.0,North,4.6,-,N/A,,Clear,360,2014-01-17 13:55:00
8:15 AM,12.7,8.8,84,30.15,10.0,WNW,6.9,-,N/A,,Clear,300,2014-01-17 14:15:00
8:35 AM,15.4,11.5,84,30.15,10.0,WNW,6.9,-,N/A,,Clear,300,2014-01-17 14:35:00
8:55 AM,18.9,13.8,81,30.13,10.0,WNW,3.5,-,N/A,,Clear,290,2014-01-17 14:55:00
9:15 AM,21.6,14.9,76,30.14,10.0,West,8.1,-,N/A,,Clear,280,2014-01-17 15:15:00
9:35 AM,24.8,16.0,69,30.14,10.0,WNW,9.2,-,N/A,,Clear,290,2014-01-17 15:35:00
9:55 AM,27.5,16.3,63,30.15,10.0,WNW,11.5,-,N/A,,Clear,300,2014-01-17 15:55:00
10:15 AM,30.0,16.3,57,30.15,10.0,NW,11.5,-,N/A,,Clear,310,2014-01-17 16:15:00
10:35 AM,31.6,16.5,54,30.15,10.0,WNW,9.2,-,N/A,,Clear,300,2014-01-17 16:35:00
10:55 AM,33.4,15.8,48,30.15,10.0,West,12.7,-,N/A,,Clear,280,2014-01-17 16:55:00
11:15 AM,34.5,15.8,46,30.14,10.0,West,6.9,-,N/A,,Clear,260,2014-01-17 17:15:00
11:35 AM,36.1,14.5,41,30.13,10.0,WNW,9.2,-,N/A,,Clear,290,2014-01-17 17:35:00
11:55 AM,36.9,14.0,39,30.11,10.0,West,6.9,-,N/A,,Clear,280,2014-01-17 17:55:00
12:15 PM,38.8,12.9,35,30.10,10.0,West,5.8,-,N/A,,Clear,260,2014-01-17 18:15:00
12:35 PM,40.1,12.7,33,30.08,10.0,West,10.4,-,N/A,,Clear,270,2014-01-17 18:35:00
12:55 PM,41.2,13.1,32,30.07,10.0,West,5.8,-,N/A,,Clear,260,2014-01-17 18:55:00
1:15 PM,42.3,13.8,32,30.05,10.0,West,9.2,-,N/A,,Clear,260,2014-01-17 19:15:00
1:35 PM,43.0,13.6,30,30.04,10.0,West,8.1,-,N/A,,Clear,270,2014-01-17 19:35:00
1:55 PM,43.9,13.8,30,30.02,10.0,WNW,8.1,16.1,N/A,,Clear,300,2014-01-17 19:55:00
2:15 PM,44.1,14.5,30,30.00,10.0,West,6.9,-,N/A,,Clear,260,2014-01-17 20:15:00
2:35 PM,45.0,14.9,30,30.00,10.0,West,10.4,-,N/A,,Clear,260,2014-01-17 20:35:00
2:55 PM,45.1,15.6,31,30.00,10.0,WNW,10.4,-,N/A,,Clear,290,2014-01-17 20:55:00
3:15 PM,43.7,15.4,32,29.99,10.0,West,5.8,-,N/A,,Clear,270,2014-01-17 21:15:00
3:35 PM,44.1,15.8,32,29.99,10.0,West,3.5,-,N/A,,Clear,280,2014-01-17 21:35:00
4:00 PM,45.3,16.5,32,29.99,10.0,Calm,Calm,-,N/A,,Clear,0,2014-01-17 22:00:00
4:15 PM,45.3,16.7,32,29.98,10.0,West,4.6,-,N/A,,Clear,270,2014-01-17 22:15:00
4:35 PM,43.2,16.5,34,29.97,10.0,West,3.5,-,N/A,,Clear,260,2014-01-17 22:35:00
4:55 PM,42.6,16.5,35,29.97,10.0,Calm,Calm,-,N/A,,Clear,0,2014-01-17 22:55:00
5:15 PM,41.0,16.5,37,29.96,10.0,SSW,3.5,-,N/A,,Clear,210,2014-01-17 23:15:00
5:35 PM,40.3,16.5,38,29.95,5.0,SW,3.5,-,N/A,,Haze,220,2014-01-17 23:35:00
5:55 PM,37.8,16.0,41,29.94,7.0,SW,4.6,-,N/A,,Clear,220,2014-01-17 23:55:00
6:20 PM,35.8,16.5,46,29.93,10.0,SSW,5.8,-,N/A,,Clear,200,2014-01-18 00:20:00
6:35 PM,34.5,16.7,48,29.92,10.0,SSW,4.6,-,N/A,,Scattered Clouds,210,2014-01-18 00:35:00
6:55 PM,34.0,16.9,50,29.93,10.0,SW,6.9,-,N/A,,Clear,230,2014-01-18 00:55:00
7:15 PM,33.6,17.1,51,29.92,10.0,SW,8.1,-,N/A,,Scattered Clouds,220,2014-01-18 01:15:00
7:40 PM,36.1,18.5,49,29.93,10.0,SW,6.9,-,N/A,,Clear,230,2014-01-18 01:40:00
7:55 PM,35.8,18.3,49,29.92,10.0,SW,6.9,-,N/A,,Scattered Clouds,230,2014-01-18 01:55:00
8:15 PM,36.7,18.9,49,29.92,10.0,WSW,5.8,-,N/A,,Mostly Cloudy,240,2014-01-18 02:15:00
8:35 PM,37.0,18.9,48,29.90,10.0,SW,6.9,-,N/A,,Scattered Clouds,230,2014-01-18 02:35:00
8:55 PM,36.3,19.4,50,29.90,10.0,WSW,6.9,-,N/A,,Clear,250,2014-01-18 02:55:00
9:10 PM,36.5,19.4,50,29.89,10.0,WSW,5.8,-,N/A,,Clear,240,2014-01-18 03:10:00
9:35 PM,34.0,18.9,54,29.89,10.0,West,4.6,-,N/A,,Clear,260,2014-01-18 03:35:00
10:00 PM,29.8,17.1,59,29.89,10.0,West,3.5,-,N/A,,Clear,270,2014-01-18 04:00:00
10:15 PM,31.3,18.1,58,29.88,10.0,West,6.9,-,N/A,,Clear,260,2014-01-18 04:15:00
10:35 PM,29.5,17.4,61,29.88,10.0,West,8.1,-,N/A,,Clear,270,2014-01-18 04:35:00
10:55 PM,27.0,16.2,64,29.87,10.0,NW,6.9,-,N/A,,Clear,310,2014-01-18 04:55:00
11:15 PM,25.7,16.3,68,29.86,10.0,NNW,9.2,-,N/A,,Clear,330,2014-01-18 05:15:00
11:35 PM,26.2,16.7,67,29.86,10.0,NNW,6.9,-,N/A,,Clear,330,2014-01-18 05:35:00
11:55 PM,22.8,14.5,71,29.85,10.0,NW,6.9,-,N/A,,Clear,320,2014-01-18 05:55:00